Temperature
4 4 4 4 4 4 4 5 6 7 7 7 7 7 6 6 5 4 4 4 4 4 4 4 4 4 4 4 4 4 4 4 4 4 4 4 4 4 4 4 3 3 3 3
3 3 4 4 4 5 5 5 5 5 6 7 6 5 5 5 4 4 3 3 3 3 3 3 3 3 4 4 4 4 4 4 4 4 4 4 3 3 3 3 3 3 3 3
3 3 3 4 4 4 5 5 5 5 6 5 5 4 4 3 3 2 2 2 2 2 2 2 3 3 3 3 3 3 3 3 3 3 3 3 3 3 3 3 3 2 2 2
2 2 2 5 4 4 4 4 4 4 4 4 4 3 2 2 2 2 2 1 2 2 2 2 2 2 3 3 3 3 3 3 3 2 3 3 2 2 2 2 2 2 2 2
2 2 3 4 3 3 3 3 3 3 3 3 2 2 2 1 1 1 1 1 1 1 1 1 1 2 2 2 2 2 2 2 2 2 2 2 2 2 2 1 1 1 1 1
1 2 3 3 3 2 3 3 3 3 3 2 2 3 3 1 1 1 1 1 1 1 1 1 1 1 1 1 1 1 1 1 1 1 1 1 1 1 1 1 1 1 1 1
1 2 3 3 2 2 3 3 2 2 2 2 2 2 1 0 0 0 0 0 0 0 0 0 0 0 0 0 1 1 1 1 1 1 1 1 1 1 0 0 0 0 0 0
1 1 2 2 1 2 2 2 1 1 1 1 0 0 -0 -0 -0 -0 -0 -0 -0 -0 -0 -0 -0 -0 -0 -0 -0 0 0 0 0 0 0 0 0 -0 -0 -0 -1 -1 -1 -1
1 2 1 0 1 1 1 1 1 0 0 -0 -1 -1 -1 -1 -1 -1 -1 -1 -1 -1 -1 -1 -1 -1 -1 -1 -0 -0 -0 -0 -0 -0 -0 -0 -1 -1 -1 -1 -1 -1 -1 -1
0 1 0 -0 -1 -0 -0 -0 -0 -0 -0 -1 -1 -1 -1 -1 -1 -1 -1 -1 -1 -1 -1 -1 -1 -1 -1 -1 -1 -1 -1 -1 -1 -1 -1 -1 -1 -1 -2 -2 -2 -2 -2 -2
-0 0 0 -1 -1 -1 -1 -1 -1 -1 -1 -1 -1 -2 -2 -2 -2 -2 -2 -2 -2 -2 -2 -2 -2 -2 -2 -1 -1 -1 -1 -1 -2 -2 -2 -2 -2 -2 -2 -2 -2 -2 -2 -2
0 -0 -0 -1 -2 -2 -2 -2 -2 -2 -2 -2 -2 -2 -2 -2 -2 -2 -2 -2 -2 -3 -3 -2 -2 -2 -2 -2 -2 -2 -2 -2 -2 -2 -2 -2 -3 -2 -2 -2 -2 -2 -2 -2
-2 -2 -2 -2 -2 -2 -2 -2 -2 -2 -2 -3 -3 -3 -3 -3 -3 -3 -3 -3 -3 -3 -3 -3 -3 -3 -3 -2 -3 -3 -3 -3 -3 -3 -3 -3 -3 -3 -3 -3 -2 -2 -2 -2
-3 -3 -3 -3 -3 -3 -3 -3 -3 -3 -3 -3 -3 -3 -3 -3 -3 -3 -3 -3 -3 -4 -4 -4 -3 -3 -3 -3 -3 -3 -3 -3 -3 -3 -4 -4 -4 -4 -4 -4 -3 -3 -2 -2
-4 -4 -4 -4 -4 -3 -3 -3 -3 -3 -4 -4 -4 -4 -4 -4 -4 -4 -4 -4 -4 -4 -4 -4 -4 -4 -3 -3 -4 -4 -4 -4 -4 -4 -4 -4 -4 -4 -4 -4 -4 -4 -3 -3
-5 -5 -5 -5 -4 -4 -4 -4 -4 -4 -4 -4 -4 -4 -5 -5 -5 -4 -4 -5 -5 -5 -4 -4 -4 -4 -4 -4 -4 -4 -4 -4 -4 -4 -4 -4 -4 -4 -4 -4 -4 -4 -4 -4
-6 -6 -6 -6 -5 -5 -5 -5 -5 -5 -5 -5 -5 -5 -5 -5 -5 -5 -5 -5 -5 -5 -5 -5 -4 -4 -4 -4 -4 -4 -4 -4 -4 -4 -4 -4 -4 -5 -5 -5 -4 -4 -4 -4
-6 -6 -6 -6 -6 -6 -6 -6 -6 -6 -6 -5 -6 -6 -6 -6 -6 -6 -6 -6 -5 -5 -5 -5 -5 -5 -5 -5 -5 -5 -5 -5 -5 -5 -5 -5 -5 -5 -5 -5 -5 -5 -5 -4
-7 -7 -6 -6 -6 -6 -6 -6 -6 -6 -6 -6 -6 -6 -6 -6 -6 -6 -6 -6 -6 -6 -5 -5 -5 -5 -5 -5 -5 -5 -5 -5 -5 -5 -5 -5 -5 -5 -5 -5 -5 -5 -5 -5
-7 -7 -7 -7 -7 -7 -7 -7 -7 -7 -7 -7 -7 -7 -7 -7 -7 -7 -7 -7 -6 -6 -6 -6 -6 -6 -6 -6 -6 -6 -6 -5 -5 -5 -6 -6 -6 -5 -5 -5 -5 -5 -5 -5
-7 -7 -7 -7 -7 -7 -7 -7 -7 -7 -7 -7 -7 -7 -7 -7 -7 -7 -7 -7 -6 -6 -6 -6 -6 -6 -6 -6 -6 -6 -6 -6 -6 -6 -6 -6 -6 -6 -6 -5 -5 -5 -5 -5
-8 -8 -8 -8 -8 -8 -8 -8 -8 -8 -8 -8 -8 -8 -8 -7 -7 -7 -7 -7 -7 -7 -7 -7 -7 -7 -7 -7 -6 -6 -6 -6 -6 -6 -6 -6 -6 -6 -6 -6 -6 -6 -5 -5
-8 -8 -8 -8 -8 -8 -8 -8 -8 -8 -8 -8 -8 -8 -8 -8 -8 -8 -8 -7 -7 -7 -7 -7 -7 -7 -7 -7 -7 -6 -6 -6 -6 -6 -6 -6 -6 -6 -6 -6 -6 -6 -6 -5
-9 -9 -9 -9 -9 -9 -9 -9 -9 -9 -9 -8 -8 -8 -8 -8 -8 -8 -8 -8 -8 -8 -7 -7 -7 -7 -7 -7 -7 -7 -7 -7 -7 -7 -7 -7 -7 -7 -6 -6 -6 -6 -6 -6
-9 -9 -9 -9 -9 -9 -9 -9 -9 -9 -9 -9 -9 -9 -9 -9 -8 -8 -8 -8 -8 -8 -8 -7 -7 -7 -7 -7 -7 -7 -7 -7 -7 -7 -7 -7 -7 -7 -7 -7 -6 -6 -6 -6
-9 -9 -10 -10 -10 -10 -10 -10 -10 -9 -9 -9 -9 -9 -9 -8 -8 -8 -8 -8 -8 -8 -8 -8 -8 -7 -7 -7 -7 -7 -7 -7 -7 -7 -7 -7 -7 -7 -7 -7 -7 -7 -7 -6
-10 -10 -10 -10 -10 -10 -10 -10 -10 -10 -9 -9 -9 -9 -9 -9 -9 -8 -8 -8 -8 -8 -8 -8 -8 -8 -8 -8 -8 -8 -7 -7 -7 -7 -7 -7 -7 -7 -7 -7 -7 -7 -7 -6
Wind_Speed
5 4 4 7 10 11 12 11 10 10 11 9 7 5 4 3 3 3 3 3 4 5 5 4 4 4 4 4 3 3 3 4 5 5 5 5 5 6 6 6 6 6 7 7
5 5 5 8 11 14 15 14 14 13 13 7 4 3 3 3 3 3 4 4 5 6 6 5 5 5 5 4 4 3 4 4 4 5 5 5 5 5 6 6 6 6 7 7
5 3 3 8 9 11 9 10 12 13 9 3 3 3 3 3 3 3 4 5 5 6 6 6 6 5 5 5 4 4 4 4 4 4 5 5 5 5 5 6 5 6 7 7
3 3 7 2 1 4 7 7 7 5 4 4 3 2 2 2 2 3 4 5 5 5 6 6 6 6 5 4 4 4 4 4 4 4 5 5 5 5 5 5 5 6 7 7
4 5 6 4 2 2 5 5 5 6 4 2 1 0 1 1 2 3 4 4 5 5 5 6 5 5 4 4 4 4 4 5 5 5 5 5 5 5 5 5 6 6 6 6
4 5 5 2 1 1 3 4 2 4 4 3 2 3 1 1 2 3 3 4 4 5 5 5 5 5 4 5 5 5 5 6 6 5 5 5 5 6 5 5 5 5 6 6
6 6 4 2 2 2 4 1 1 3 3 3 3 3 1 2 3 3 3 4 4 4 4 5 5 4 4 5 5 6 6 6 6 5 5 5 5 5 5 5 5 5 5 6
5 6 5 0 2 3 2 2 1 2 2 2 1 1 1 2 3 3 3 4 4 4 5 5 5 5 5 6 6 6 5 5 6 5 5 4 4 4 4 4 5 5 5 6
4 3 2 1 2 3 3 3 3 2 2 2 1 1 2 3 3 3 3 4 4 4 5 5 5 5 5 6 6 6 5 5 5 5 5 4 4 4 4 4 4 5 5 5
3 4 4 4 4 4 4 4 2 1 1 2 1 2 2 3 3 3 4 4 4 5 5 6 6 5 5 6 6 5 5 5 5 5 5 4 4 3 4 4 4 5 5 5
4 5 5 4 3 3 2 1 0 0 0 1 1 2 2 3 3 4 4 4 4 4 5 6 6 6 6 6 5 6 6 5 5 5 5 4 4 4 4 4 5 5 5 5
4 4 3 3 3 2 2 2 1 1 0 1 1 2 3 3 3 4 4 4 4 5 5 6 6 6 6 6 5 5 5 5 4 4 4 4 4 4 4 5 6 7 7 7
5 4 3 3 3 2 2 2 2 1 1 1 2 2 3 3 4 4 4 4 5 5 6 6 6 7 6 6 6 5 5 5 4 4 4 4 4 4 5 5 5 6 6 6
3 3 2 2 2 2 2 2 2 2 2 2 2 3 3 3 4 4 5 5 5 5 6 6 6 7 7 6 6 6 6 5 5 4 3 4 4 4 4 5 5 5 5 6
3 2 2 1 2 2 2 2 2 2 3 3 3 3 3 4 5 5 5 5 5 5 5 6 6 7 7 6 5 6 5 4 3 3 3 3 4 4 4 4 4 5 5 5
3 1 1 1 2 2 2 2 2 3 4 4 4 4 4 4 5 5 5 4 4 5 6 6 6 7 6 6 6 5 4 4 4 3 3 3 3 3 3 3 4 4 4 4
2 2 2 3 3 3 3 3 3 4 4 4 4 5 5 4 4 5 5 5 4 5 6 6 7 7 6 6 5 4 3 3 4 3 3 3 3 3 3 3 3 3 3 4
3 3 3 4 4 4 4 4 3 4 4 4 4 4 4 4 4 5 5 5 5 5 5 6 6 6 6 5 4 3 3 3 3 3 3 3 3 3 3 3 3 3 3 3
3 3 3 3 3 3 4 4 4 4 4 4 4 4 4 4 5 5 5 5 5 6 6 6 7 6 5 5 4 3 2 2 2 2 2 3 3 3 3 2 2 3 3 3
4 4 4 4 4 3 4 4 4 4 4 4 4 4 4 4 4 4 4 4 4 5 6 7 6 5 4 4 4 2 2 2 2 2 2 2 2 2 2 2 2 2 2 2
4 4 4 4 4 4 4 4 4 4 4 4 3 3 4 5 4 4 4 4 5 5 6 7 5 4 3 3 3 2 2 2 2 2 2 2 2 2 2 2 2 2 2 2
5 4 4 4 4 5 5 4 4 4 4 4 4 3 4 4 4 4 4 4 5 7 5 4 3 4 4 4 2 2 2 2 2 2 2 2 2 2 2 2 2 2 2 2
4 4 4 4 4 5 5 4 4 4 4 4 4 4 4 4 4 4 4 4 4 6 5 3 4 5 5 3 2 2 2 2 2 2 2 2 2 2 2 2 2 2 2 2
4 4 4 4 4 3 4 5 5 4 4 4 4 4 4 4 4 3 4 5 7 6 4 4 6 6 5 3 2 2 2 2 2 2 2 2 2 2 2 2 2 2 2 3
4 4 4 4 4 3 4 5 5 4 4 4 4 5 4 3 3 4 4 5 6 5 4 5 6 6 4 2 2 2 2 2 2 2 2 2 1 1 2 2 2 2 2 2
3 3 3 3 3 3 3 3 3 3 4 4 4 4 4 4 4 4 3 4 5 4 4 3 3 4 3 2 2 2 2 2 2 2 2 1 1 1 2 2 2 2 2 2
3 3 3 3 3 3 3 3 3 4 4 4 4 4 5 4 4 4 4 3 3 3 3 3 3 3 2 2 2 2 2 2 2 2 1 1 1 1 2 2 2 2 2 2
Wind_Direction
254 257 234 237 227 216 220 228 235 243 246 254 262 276 296 311 329 336 331 331 333 334 336 333 328 326 323 312 308 308 298 290 287 290 292 292 289 291 292 289 284 285 286 287
244 246 250 258 244 231 232 233 237 249 259 260 254 263 283 299 313 319 327 332 334 334 334 330 321 319 317 308 306 305 296 291 293 296 299 294 293 295 294 290 287 288 288 287
234 234 260 252 240 228 225 224 227 239 245 227 247 254 284 306 316 321 326 330 331 329 327 326 323 315 309 306 303 301 297 295 295 298 298 295 296 299 297 294 291 289 287 286
214 203 231 249 347 224 221 232 230 237 245 238 247 278 297 304 310 325 328 327 326 327 329 327 324 322 320 316 308 306 304 303 304 301 297 298 300 301 301 298 291 288 290 292
202 225 257 266 276 223 224 249 237 228 232 225 172 264 270 325 320 325 327 327 326 329 329 328 329 331 330 327 324 320 316 312 307 300 294 296 298 300 304 304 298 295 295 293
204 223 238 260 327 286 237 249 212 202 201 198 212 247 261 356 340 334 336 337 332 331 333 333 333 334 331 327 327 324 321 314 307 300 293 292 296 300 301 300 300 300 296 292
220 231 257 287 293 199 217 259 151 199 200 203 238 277 287 310 315 320 331 341 337 329 330 330 329 328 322 321 319 318 317 313 309 306 301 298 301 301 302 302 301 301 302 302
206 221 243 171 174 211 297 330 280 230 217 215 253 271 271 294 310 320 328 339 338 334 333 333 334 332 323 319 317 317 315 309 309 310 309 304 303 306 306 304 302 302 303 307
211 237 319 273 258 296 300 287 284 256 222 200 217 258 289 302 312 321 325 331 332 330 327 330 334 331 321 320 322 320 316 311 311 314 312 308 306 308 310 308 302 303 305 307
240 265 285 299 297 303 296 286 284 259 215 186 215 275 296 306 314 318 322 327 329 327 325 328 332 329 321 319 320 318 314 315 316 315 314 314 313 307 305 304 301 301 303 305
251 277 290 306 306 310 325 323 296 353 176 199 213 259 284 297 306 311 316 322 323 318 316 319 324 324 326 324 322 315 312 311 311 311 308 311 312 313 307 304 300 298 297 297
269 286 281 300 328 338 351 349 336 323 310 291 267 279 292 298 305 305 308 310 309 309 311 315 318 318 322 322 316 309 306 306 306 305 306 307 312 318 326 309 316 311 305 298
278 302 294 293 327 355 353 351 355 352 318 304 304 292 290 296 300 302 303 304 304 307 308 309 310 312 318 319 312 304 297 297 299 299 300 298 302 305 314 325 327 324 319 315
298 288 275 292 316 346 1 5 12 2 343 323 312 308 298 299 301 303 304 305 305 305 305 305 307 309 314 315 310 303 299 295 295 296 300 300 299 302 305 311 319 324 332 331
337 313 281 317 355 5 6 11 1 343 339 335 328 317 308 302 303 306 307 306 304 303 302 303 305 308 314 313 308 302 299 296 297 298 298 297 298 301 303 306 307 312 320 330
328 337 332 323 326 337 347 344 330 319 321 319 316 312 309 302 300 303 307 303 300 300 302 302 302 305 310 308 305 302 300 301 301 299 297 297 299 301 304 306 306 309 314 318
328 321 323 314 304 305 308 306 301 300 302 303 304 307 305 302 305 309 312 309 299 294 297 299 301 306 308 305 303 299 300 303 305 302 300 301 302 300 301 302 304 307 312 326
307 297 294 293 296 298 303 309 307 306 304 303 304 302 299 297 299 305 307 310 310 306 306 305 305 308 306 307 306 300 297 298 301 301 304 302 301 297 295 295 298 302 312 328
335 323 323 322 314 308 307 312 313 311 310 307 303 298 297 296 295 298 302 306 309 311 316 315 314 312 309 312 315 302 299 304 309 308 306 304 304 300 300 302 305 313 321 331
348 347 343 340 336 325 316 319 317 314 313 308 300 299 303 306 307 304 304 301 301 302 306 309 311 311 313 314 319 309 306 306 304 303 307 306 309 314 318 319 323 330 332 338
344 342 341 340 337 334 326 319 315 314 315 313 305 301 304 309 312 308 306 307 315 320 318 317 320 320 324 332 332 324 314 311 309 304 305 310 317 321 325 332 339 338 339 348
337 337 337 336 335 333 332 327 321 318 320 324 325 320 315 315 318 315 307 301 312 323 328 328 335 343 348 345 338 332 328 325 323 323 326 329 330 332 340 346 346 347 350 353
334 334 335 335 331 326 329 334 332 328 326 327 326 322 318 315 314 313 318 324 324 332 337 339 348 355 357 353 345 342 343 341 339 341 342 343 342 342 349 352 356 359 359 2
338 339 335 334 337 341 340 339 339 337 333 327 326 321 316 317 323 321 311 318 332 337 342 347 354 357 356 355 351 349 351 352 353 352 352 354 356 359 357 358 360 2 9 12
335 335 337 340 343 337 330 330 335 340 343 343 339 337 331 321 313 317 321 326 335 343 345 348 355 358 358 355 355 352 353 3 2 358 353 355 5 7 8 10 11 10 10 10
331 331 329 324 318 317 320 325 330 332 335 336 337 336 334 329 320 318 322 332 337 345 344 342 346 352 356 357 355 355 359 358 359 358 357 3 7 8 14 19 16 13 8 10
338 339 337 338 338 334 328 326 324 323 324 322 321 325 327 326 327 331 333 336 342 346 347 347 348 352 353 353 354 358 2 3 1 356 359 4 7 15 16 11 10 10 9 12
Height
1436 1435 1436 1436 1436 1438 1439 1434 1432 1425 1427 1427 1429 1431 1433 1434 1435 1435 1435 1434 1433 1433 1432 1431 1430 1429 1428 1426 1426 1425 1424 1423 1422 1421 1420 1419 1418 1416 1415 1413 1411 1410 1408 1406
1437 1436 1435 1434 1431 1431 1431 1431 1431 1429 1428 1428 1430 1432 1433 1434 1434 1434 1434 1433 1432 1431 1430 1429 1428 1426 1425 1424 1423 1421 1420 1419 1419 1418 1416 1415 1414 1412 1410 1408 1407 1405 1403 1401
1431 1435 1435 1429 1425 1425 1425 1425 1425 1424 1424 1428 1429 1431 1432 1433 1433 1432 1432 1431 1431 1429 1428 1427 1426 1424 1422 1421 1420 1418 1417 1416 1415 1414 1413 1411 1410 1408 1406 1404 1402 1400 1399 1397
1433 1437 1434 1421 1424 1424 1424 1424 1425 1425 1426 1427 1429 1430 1431 1432 1431 1431 1431 1430 1429 1427 1426 1424 1423 1421 1419 1418 1416 1415 1414 1413 1412 1410 1409 1408 1406 1404 1402 1400 1398 1396 1394 1392
1432 1428 1422 1423 1425 1425 1424 1423 1424 1425 1426 1428 1429 1429 1430 1431 1431 1430 1430 1429 1428 1426 1424 1422 1421 1419 1417 1415 1414 1413 1411 1410 1408 1407 1406 1404 1402 1401 1399 1397 1395 1392 1390 1388
1431 1427 1421 1420 1424 1425 1425 1421 1423 1423 1425 1426 1427 1426 1428 1430 1429 1429 1429 1428 1426 1425 1423 1421 1419 1417 1415 1413 1412 1410 1409 1407 1406 1404 1403 1401 1399 1398 1396 1394 1391 1389 1387 1385
1428 1425 1419 1423 1424 1425 1424 1420 1422 1423 1424 1425 1425 1425 1428 1428 1428 1427 1427 1426 1424 1423 1421 1419 1417 1415 1413 1411 1410 1408 1406 1405 1403 1402 1400 1398 1396 1395 1393 1391 1388 1386 1383 1381
1426 1426 1423 1423 1424 1424 1421 1422 1422 1422 1423 1424 1424 1425 1425 1426 1425 1425 1424 1423 1422 1420 1419 1417 1415 1413 1411 1409 1408 1406 1404 1402 1400 1399 1397 1396 1394 1392 1390 1388 1385 1383 1380 1378
1423 1423 1423 1424 1423 1423 1422 1422 1421 1421 1422 1422 1422 1423 1423 1423 1423 1423 1422 1421 1420 1418 1416 1415 1413 1411 1409 1407 1405 1403 1402 1400 1398 1397 1395 1393 1391 1389 1387 1385 1383 1380 1378 1375
1424 1423 1423 1423 1422 1422 1421 1421 1421 1420 1420 1420 1421 1421 1421 1421 1421 1420 1420 1419 1417 1416 1414 1412 1411 1409 1407 1405 1403 1401 1399 1398 1396 1394 1392 1391 1389 1386 1384 1382 1380 1378 1375 1373
1422 1422 1422 1421 1421 1421 1420 1420 1419 1419 1419 1419 1419 1419 1419 1419 1418 1418 1417 1416 1415 1413 1412 1410 1408 1407 1405 1403 1401 1399 1397 1395 1394 1392 1390 1388 1386 1384 1382 1380 1378 1376 1373 1371
1420 1421 1422 1422 1421 1420 1420 1419 1418 1418 1418 1418 1418 1417 1417 1416 1416 1415 1414 1413 1412 1411 1409 1407 1406 1404 1402 1400 1399 1397 1395 1393 1391 1389 1387 1385 1383 1380 1379 1377 1375 1373 1371 1369
1422 1421 1421 1421 1420 1419 1419 1418 1418 1417 1416 1416 1416 1415 1415 1414 1414 1413 1412 1411 1409 1408 1406 1404 1403 1401 1399 1397 1396 1394 1392 1390 1388 1386 1384 1382 1380 1378 1375 1373 1372 1370 1368 1366
1420 1420 1420 1419 1419 1418 1418 1417 1416 1415 1415 1414 1414 1413 1412 1412 1411 1410 1409 1408 1406 1405 1403 1402 1400 1398 1396 1394 1393 1391 1389 1387 1385 1384 1382 1380 1378 1376 1373 1371 1368 1366 1365 1364
1419 1418 1418 1418 1417 1417 1416 1416 1415 1414 1413 1412 1411 1411 1410 1409 1408 1407 1406 1404 1403 1401 1400 1398 1396 1394 1393 1391 1389 1388 1386 1384 1382 1381 1379 1377 1375 1373 1371 1369 1367 1365 1363 1362
1418 1417 1417 1416 1416 1415 1415 1414 1413 1412 1411 1410 1409 1408 1407 1406 1405 1403 1402 1401 1399 1398 1396 1395 1393 1391 1390 1388 1386 1384 1383 1381 1379 1378 1376 1374 1372 1370 1369 1367 1365 1363 1362 1361
1417 1416 1416 1415 1414 1413 1413 1412 1411 1409 1408 1407 1406 1405 1404 1403 1402 1400 1399 1398 1396 1394 1393 1391 1389 1388 1386 1385 1383 1381 1380 1378 1377 1375 1373 1371 1370 1368 1367 1365 1364 1362 1361 1360
1416 1416 1415 1414 1413 1411 1410 1410 1408 1407 1406 1404 1403 1402 1401 1400 1398 1397 1396 1394 1393 1391 1390 1388 1386 1385 1383 1382 1380 1379 1377 1376 1374 1372 1371 1369 1368 1366 1365 1363 1362 1361 1360 1359
1415 1414 1413 1412 1411 1410 1409 1407 1406 1405 1403 1402 1401 1399 1398 1397 1396 1394 1393 1391 1390 1388 1386 1385 1383 1382 1380 1379 1378 1376 1375 1373 1372 1370 1368 1367 1366 1364 1363 1362 1361 1360 1359 1358
1414 1412 1411 1410 1409 1408 1407 1405 1404 1402 1401 1399 1398 1397 1396 1394 1393 1392 1390 1389 1387 1385 1384 1382 1380 1379 1378 1376 1375 1374 1373 1371 1370 1368 1367 1365 1364 1363 1362 1361 1360 1360 1359 1358
1412 1411 1410 1409 1407 1406 1405 1403 1401 1400 1398 1397 1396 1394 1393 1392 1391 1389 1387 1386 1385 1383 1381 1380 1378 1377 1375 1374 1373 1372 1371 1369 1368 1367 1365 1364 1363 1362 1361 1360 1360 1359 1358 1358
1411 1410 1408 1407 1406 1404 1403 1401 1400 1398 1396 1395 1394 1392 1391 1390 1388 1387 1385 1384 1382 1381 1379 1378 1376 1375 1374 1373 1371 1370 1369 1368 1367 1366 1364 1363 1362 1361 1361 1360 1359 1359 1359 1358
1411 1409 1407 1406 1404 1402 1401 1400 1398 1396 1395 1393 1392 1390 1389 1388 1386 1385 1383 1382 1381 1379 1378 1376 1375 1374 1373 1372 1370 1369 1368 1367 1366 1365 1364 1363 1362 1361 1360 1360 1360 1359 1359 1358
1409 1408 1406 1404 1403 1401 1399 1398 1396 1395 1394 1392 1391 1389 1388 1386 1385 1384 1382 1381 1379 1378 1376 1375 1374 1373 1372 1371 1370 1369 1368 1367 1366 1365 1364 1363 1362 1361 1361 1360 1360 1360 1359 1359
1408 1407 1405 1403 1401 1400 1398 1397 1395 1394 1393 1391 1390 1388 1387 1386 1384 1383 1381 1380 1378 1377 1375 1374 1373 1372 1371 1370 1369 1368 1367 1366 1365 1365 1364 1363 1362 1362 1361 1361 1361 1360 1360 1360
1407 1406 1404 1402 1401 1399 1397 1396 1394 1393 1392 1390 1389 1388 1386 1385 1384 1382 1380 1379 1377 1376 1374 1373 1372 1371 1370 1369 1368 1368 1367 1366 1365 1365 1364 1363 1363 1362 1362 1361 1361 1361 1361 1361
1406 1405 1403 1401 1400 1398 1397 1395 1394 1392 1391 1390 1388 1387 1386 1384 1383 1381 1380 1378 1377 1375 1374 1373 1371 1371 1370 1369 1368 1368 1367 1366 1366 1365 1364 1364 1363 1363 1363 1362 1362 1362 1362 1362